Location: Peebles
(55.6412°N, 3.1714°W)
Time: 20:06:30
(UTC+01:00)

Envisat - Pass Details

Date: 27 February 2024
Orbit: 762 x 764 km, 98.3° (Epoch: 21 April)

Event Time Altitude Azimuth Distance (km) Brightness Sun altitude
Rises 03:50:49 0° 16° (NNE) 3,246 6.9 -28.1°
Reaches altitude 10° 03:53:09 10° 18° (NNE) 2,315 6.0 -27.8°
Maximum altitude 03:58:16 77° 105° (ESE) 790 3.0 -27.2°
Enters shadow 03:58:27 76° 131° (SE) 794 3.0 -27.2°
